User: anonymous   Login
Location: Ostrava
(49.8330°N, 18.2830°E)
Time: 09:40:25
(UTC+01:00)
Language:

Cosmos 1766 - Orbit

View from above orbital plane
View from above orbital plane
View from above satellite
View from above satellite

Ground track
Ground track

The orbit data is extracted from the following two-line orbital elements,

1 16881U 86055A   17018.47552610  .00000463  00000-0  26667-4 0  9999
2 16881  82.5116 170.1102 0014501 255.3661 104.5961 15.09936587658840
Epoch (UTC): 18 January 2017 11:24:45
Eccentricity: 0.0014501
inclination: 82.5116°
perigee height: 526 km
apogee height: 546 km
right ascension of ascending node: 170.1102°
argument of perigee: 255.3661°
revolutions per day: 15.09936587
mean anomaly at epoch: 104.5961°
orbit number at epoch: 65884

The dashed part of the orbit path shows where the satellite is in the earth's shadow,  

DLR